28P/Neujmin 1 (2021)

Japanese version
Home page
Updated on October 9, 2020

---------------------------------------------------------------------

* Profile

* Orbital Elements

Epoch 2021 Mar. 7.0 TT = JDT 2459280.5
T 2021 Mar. 11.88453 TT                                 Rudenko
q   1.5782642            (2000.0)            P               Q
n   0.05344607     Peri.  347.41112     +0.89842026     +0.43523472
a   6.9800554      Node   346.33230     -0.37842486     +0.69985001
e   0.7738894      Incl.   14.31173     -0.22279063     +0.56637505
P  18.4
From 563 observations 1931 Aug. 20-2020 Sept. 16, mean residual 0".6.

* Finding Charts

* Magnitudes Graph

        H = 12.2  G = 0.15

---------------------------------------------------------------------

The orbital elements are published on M.P.E.C. 2020-S188.
The charts are made with StellaNavigator Ver.10 (AstroArts).
The magnitudes graphs are made with Comet for Windows.

---------------------------------------------------------------------

Copyright(C) Seiichi Yoshida (comet@aerith.net). All rights reserved.